"Pseudo-MPEC" for P10ODfj

Created 2019 Jun 20 19:07:17 UT using Find_Orb

Click here for an explanation of pseudo-MPECs

 
 Astrometry: 
     P10ODfj  C2019 06 01+UJb]tU]qZUpByh@7T2x0:W!Cn)-4cPwF$,)AstrometryuAUPrwF51
     P10ODfj  C2019 06 01O:=gI)?YDvZADN$,7.)^2jAaeC;oredacted;mkde23nQFl'Z3%xF51
     P10ODfj  C2019 06 02b)+y7h7#23dQ0mM8D8JW-clickUWS\7gajODO(here[=t^*-H[=(F51
     P10ODfj  C2019 06 02NwU@AHDR/y/b5GOPfor7Xtfa/]5mgvo#9Q+kaL2cperJtZ_ud6fBF51
     P10ODfj  C2019 06 02dR]tjLgexplanation1H74bB@-)l?l^f3S.=u9'Qq#B)L3=hU]u9F51
     P10ODfj  C2019 06 02)n_FS$ffWltNbIgiQCHv?+,Ijb`?Uj3:j@rV,OI[W1*ET5=R^mKiF51

Station data:
(F51) Pan-STARRS 1, Haleakala  (N20.707235 W156.255910)  US/Hawaii.
   Observers N. Primak, A. Schultz, S. Watters, J. Thiel, T. Goggia. Measurer
   PS1 Science Consortium. 1.8-m Ritchey-Chrétien + CCD.

Orbital elements:  P10ODfj
   Perihelion 2018 Mar 27.767680 +/- 451 TT = 18:25:27 (JD 2458205.267680)
Epoch 2019 Jun  2.0 TT = JDT 2458636.5   Ju: 0.0271           AutoNEOCP
M  32.51356439 +/- 80               (J2000 ecliptic)
n   0.07539686 +/- 0.151            Peri.   72.87986 +/- 90
a   5.54924453 +/- 7.42             Node   215.09778 +/- 34
e   0.0424665 +/- 0.214             Incl.   22.89983 +/- 22
P  13.07                   H 14.4   G  0.15   U 11.5  SR
q 5.31358714 +/- 1.98    Q 5.78490191 +/- 61.8
From 6 observations 2019 June 1-2 (24.4 hr); mean residual 0".05
Residuals in arcseconds: 
190601 F51  .04+  .02+    190602 F51  .07+  .04+    190602 F51  .09-  .06-    
190601 F51  .04-  .02-    190602 F51  .04-  .04-    190602 F51  .07+  .06+    

Ephemerides (geocentric):
Date (UTC) HH   RA              Dec         delta   r     elong  mag " sig PA
---- -- -- --  -------------   -----------  ------ ------ -----  --- ---- ---
2019 06 20 19  22 00 43.786   +12 57 30.46  4.9263 5.3570 109.8 22.2 1439 162
2019 06 20 20  22 00 43.694   +12 57 38.65  4.9258 5.3570 109.9 22.2 1446 162
2019 06 20 21  22 00 43.600   +12 57 46.84  4.9252 5.3570 109.9 22.2 1453 162
2019 06 20 22  22 00 43.504   +12 57 55.02  4.9247 5.3570 109.9 22.2 1460 162
2019 06 20 23  22 00 43.408   +12 58 03.19  4.9241 5.3570 110.0 22.2 1468 162
2019 06 21 00  22 00 43.311   +12 58 11.35  4.9236 5.3570 110.0 22.2 1475 162
2019 06 21 01  22 00 43.212   +12 58 19.51  4.9231 5.3570 110.0 22.2 1482 162
2019 06 21 02  22 00 43.112   +12 58 27.66  4.9225 5.3571 110.1 22.2 1490 162
2019 06 21 03  22 00 43.011   +12 58 35.79  4.9220 5.3571 110.1 22.2 1497 162
2019 06 21 04  22 00 42.909   +12 58 43.92  4.9214 5.3571 110.1 22.2 1504 162
2019 06 21 05  22 00 42.806   +12 58 52.04  4.9209 5.3571 110.2 22.2 1512 162
2019 06 21 06  22 00 42.702   +12 59 00.16  4.9204 5.3571 110.2 22.2 1519 162
2019 06 21 07  22 00 42.596   +12 59 08.26  4.9198 5.3571 110.3 22.2 1527 162
2019 06 21 08  22 00 42.489   +12 59 16.36  4.9193 5.3571 110.3 22.2 1534 162
2019 06 21 09  22 00 42.381   +12 59 24.45  4.9187 5.3571 110.3 22.2 1542 162
2019 06 21 10  22 00 42.272   +12 59 32.53  4.9182 5.3571 110.4 22.2 1549 162
2019 06 21 11  22 00 42.162   +12 59 40.60  4.9177 5.3571 110.4 22.2 1557 162
2019 06 21 12  22 00 42.051   +12 59 48.66  4.9171 5.3571 110.4 22.2 1565 162
2019 06 21 13  22 00 41.938   +12 59 56.72  4.9166 5.3571 110.5 22.2 1572 162
2019 06 21 14  22 00 41.824   +13 00 04.77  4.9160 5.3571 110.5 22.2 1580 162
2019 06 21 15  22 00 41.710   +13 00 12.80  4.9155 5.3572 110.5 22.2 1587 162
2019 06 21 16  22 00 41.594   +13 00 20.83  4.9150 5.3572 110.6 22.2 1595 162
2019 06 21 17  22 00 41.476   +13 00 28.86  4.9144 5.3572 110.6 22.2 1603 162
2019 06 21 18  22 00 41.358   +13 00 36.87  4.9139 5.3572 110.6 22.2 1611 162
2019 06 21 19  22 00 41.239   +13 00 44.88  4.9134 5.3572 110.7 22.2 1618 162
2019 06 21 20  22 00 41.118   +13 00 52.87  4.9128 5.3572 110.7 22.2 1626 162
2019 06 21 21  22 00 40.996   +13 01 00.86  4.9123 5.3572 110.7 22.2 1634 162
2019 06 21 22  22 00 40.873   +13 01 08.84  4.9117 5.3572 110.8 22.2 1642 162
2019 06 21 23  22 00 40.749   +13 01 16.81  4.9112 5.3572 110.8 22.2 1650 162
2019 06 22 00  22 00 40.624   +13 01 24.78  4.9107 5.3572 110.8 22.2 1658 162
2019 06 22 01  22 00 40.497   +13 01 32.73  4.9101 5.3572 110.9 22.2 1665 162
2019 06 22 02  22 00 40.370   +13 01 40.68  4.9096 5.3572 110.9 22.2 1673 162
2019 06 22 03  22 00 40.241   +13 01 48.62  4.9091 5.3572 111.0 22.2 1681 162
2019 06 22 04  22 00 40.111   +13 01 56.55  4.9085 5.3573 111.0 22.2 1689 162
2019 06 22 05  22 00 39.980   +13 02 04.47  4.9080 5.3573 111.0 22.2 1697 162
2019 06 22 06  22 00 39.848   +13 02 12.38  4.9074 5.3573 111.1 22.2 1705 162
2019 06 22 07  22 00 39.714   +13 02 20.29  4.9069 5.3573 111.1 22.2 1713 162
2019 06 22 08  22 00 39.580   +13 02 28.18  4.9064 5.3573 111.1 22.2 1722 162
2019 06 22 09  22 00 39.444   +13 02 36.07  4.9058 5.3573 111.2 22.2 1730 162
2019 06 22 10  22 00 39.307   +13 02 43.95  4.9053 5.3573 111.2 22.2 1738 162
2019 06 22 11  22 00 39.169   +13 02 51.82  4.9048 5.3573 111.2 22.2 1746 162
2019 06 22 12  22 00 39.030   +13 02 59.68  4.9042 5.3573 111.3 22.2 1754 162
2019 06 22 13  22 00 38.890   +13 03 07.54  4.9037 5.3573 111.3 22.2 1762 162
2019 06 22 14  22 00 38.748   +13 03 15.38  4.9032 5.3573 111.3 22.2 1771 162
2019 06 22 15  22 00 38.606   +13 03 23.22  4.9026 5.3573 111.4 22.2 1779 162
2019 06 22 16  22 00 38.462   +13 03 31.05  4.9021 5.3573 111.4 22.2 1787 162
2019 06 22 17  22 00 38.317   +13 03 38.87  4.9016 5.3574 111.4 22.2 1796 162
2019 06 22 18  22 00 38.171   +13 03 46.68  4.9010 5.3574 111.5 22.2 1804 162